[[{"header":{"parameterUnit":"m.s-1","parameterCategory":1,"la1":30.2991,"la2":30.254,"lo1":-89.0895,"lo2":-89.0444,"dy":0.0017,"dx":0.0017,"nx":28,"ny":28,"refTime":"2024-07-03T09:00:00:Z","depth":0,"parameterNumber":2,"parameterNumberName":"U-component_of_WINDS"},"data":[0,0,0,0,0,0,0,0,0,0,0,0,0,0,0,0,0,0,0,0,0,0,0,0,0,0,0,0,0,0,0,0,0,0,0,0,0,0,0,0,0,0,0,0,0,0,0,0,0,0,0,0,0,0,0,0,0,0,4.9214,4.9216,0,4.9355,4.9357,4.9358,4.9299,4.9295,4.9292,4.9289,4.9434,4.944,4.9447,0,0,0,0,0,0,0,0,0,0,0,0,0,4.8891,4.8898,4.9214,4.9216,4.9218,4.9355,4.9357,4.9359,4.9299,4.9295,4.9291,4.9287,4.9431,4.944,4.9448,0,0,0,0,0,0,0,0,0,0,0,0,0,4.9032,4.89,4.9214,4.9204,4.9205,4.9354,4.9357,4.9359,4.93,4.9295,4.929,4.9285,4.9429,4.9439,4.9449,4.9616,0,0,4.9481,4.9486,0,0,0,0,0,0,0,0,4.9024,4.9044,4.9204,4.9205,4.9206,4.9304,4.9296,4.9445,4.9301,4.9264,4.9289,4.9283,4.9395,4.9408,4.9445,4.9623,4.9629,4.9482,4.9489,4.9493,4.9496,0,0,0,0,0,0,0,4.9014,4.9037,4.927,4.9206,4.9208,4.9193,4.9207,4.9324,4.9356,4.9267,4.9263,4.928,4.9394,4.9435,4.9448,4.9632,4.9482,4.9491,4.9498,4.9502,4.9949,4.9955,0,0,0,0,0,0,4.9005,4.903,4.9265,4.9274,4.9101,4.9203,4.9219,4.9278,4.9355,4.9362,4.9285,4.9277,4.942,4.9436,4.9453,4.9651,4.9493,4.9503,4.9509,4.9944,4.9951,4.9957,0,0,0,0,0,0,4.8998,4.9026,4.926,4.9151,4.9179,4.9214,4.928,4.9283,4.9324,4.9368,4.9373,4.9321,4.9416,4.9438,4.9575,4.9655,4.9508,4.9517,4.9937,4.9946,4.9954,5.0049,0,0,0,0,0,0,4.8989,4.9024,4.9089,4.9153,4.9185,4.938,4.9286,4.929,4.9342,4.9334,4.9403,4.941,4.9414,4.956,4.9586,4.9667,4.9526,4.993,4.9941,4.9951,5.0039,5.006,5.0077,0,0,0,0,0,4.8978,4.9111,4.9092,4.9121,4.9267,4.9385,4.9403,4.9405,4.9349,4.9413,4.9441,4.9408,4.9643,4.9574,4.9603,4.9689,4.9925,4.9938,4.995,5.003,5.0055,5.0077,0,0,0,0,0,0,4.9056,4.9119,4.9099,4.9257,4.9316,4.9374,4.9456,4.9433,4.9509,4.9498,4.9497,4.9513,4.9654,4.9685,4.9608,4.9852,4.9775,4.9794,4.9826,4.9851,4.987,4.9858,4.9534,0,0,0,0,0,4.9092,4.9183,4.9233,4.9367,4.9398,4.9422,4.9474,4.947,4.9531,4.9555,4.9593,4.9654,4.974,4.9798,4.9881,5.0044,5.0056,5.0117,5.0136,5.0151,5.0167,5.0252,5.0278,4.9998,4.9998,4.9997,0,0,4.9166,4.9212,4.9269,4.9384,4.9429,4.9522,4.9443,4.9546,4.9614,4.9571,4.9701,4.9731,4.9799,4.9948,5.0016,4.9979,5.0247,5.0167,5.0179,5.0186,5.0267,5.0294,5.0317,5.0006,5.0005,5.0003,0,0,4.9348,4.9394,4.9509,4.9555,4.9624,4.9639,4.9666,4.9728,4.9746,4.9877,4.9845,4.9927,5.0078,5.0126,5.017,5.0368,5.0339,5.0396,5.0495,5.0578,5.06,5.0619,5.0687,5.0711,5.0411,5.0412,5.0412,0,4.9432,4.9571,4.9571,4.9675,4.9725,4.969,4.9805,4.985,4.9943,4.9978,4.9935,5.0121,5.0164,5.0322,5.037,5.0409,5.0438,5.0386,5.0597,5.0616,5.0634,5.0699,5.0724,5.0418,5.0417,5.0416,5.0416,0,4.9669,4.9766,4.985,4.9939,4.9999,5.0109,5.0124,5.0185,5.0175,5.0194,5.0326,5.0377,5.0467,5.0505,5.0498,5.0663,5.0637,5.0596,5.0518,5.0667,5.0727,5.0752,5.0426,5.0424,5.0422,5.0421,0,0,4.9904,4.999,5.0021,5.0059,5.0131,5.0206,5.0313,5.0401,5.0451,5.0517,5.0604,5.0732,5.0693,5.0743,5.0741,5.0815,5.0964,5.0764,5.0765,5.0796,5.1144,5.1172,5.12,5.0946,5.0951,5.0955,5.1137,0,5.0089,5.0276,5.0278,5.0449,5.0537,5.0504,5.0596,5.065,5.0671,5.0748,5.077,5.0859,5.0804,5.0833,5.0904,5.0931,5.1033,5.0918,5.1026,5.1029,5.1006,5.1232,5.1263,5.1433,5.1161,5.1165,5.1168,0,5.033,5.0401,5.0581,5.0637,5.0674,5.0758,5.0836,5.0911,5.0971,5.098,5.1035,5.1021,5.1129,5.1049,5.1196,5.1117,5.1162,5.1181,5.1188,5.1195,5.1105,5.1243,5.1487,5.1511,5.1205,5.1202,5.12,0,5.0479,5.062,5.0744,5.0779,5.0849,5.0908,5.094,5.0995,5.1046,5.1116,5.1149,5.123,5.1274,5.1337,5.1345,5.1287,5.1491,5.1413,5.15,5.15,5.1542,5.1539,5.1794,5.1577,5.1576,5.1576,5.1575,0,5.0683,5.0794,5.0811,5.0888,5.101,5.1011,5.1132,5.1159,5.1207,5.1287,5.1265,5.1341,5.1348,5.1425,5.1433,5.1551,5.1572,5.1581,5.1581,5.1581,5.1579,5.1608,5.1595,5.1583,5.1581,5.158,5.1579,0,5.0869,5.0886,5.1019,5.1074,5.1091,5.1178,5.1224,5.1297,5.1315,5.1416,5.144,5.1468,5.1558,5.1572,5.1679,5.1683,5.1823,5.1813,5.1803,5.18,5.1885,5.1875,5.2164,5.22,5.1963,5.1965,5.1967,0,5.0997,5.1081,5.1144,5.1196,5.1231,5.1315,5.1367,5.1371,5.1426,5.1498,5.1561,5.1649,5.1718,5.1864,5.1893,5.1973,5.1962,5.2058,5.1974,5.1971,5.1959,5.1953,5.1959,5.2073,5.2076,5.2078,5.208,0,5.1221,5.1224,5.13,5.1378,5.1441,5.1503,5.1561,5.1605,5.1616,5.1679,5.177,5.1824,5.1931,5.2017,5.2096,5.2128,5.2105,5.2106,5.213,5.2129,5.2118,5.2121,5.1843,5.2099,5.2097,5.2096,5.2095,5.2094,5.1379,5.1451,5.1506,5.159,5.1634,5.1688,5.1758,5.1784,5.1859,5.1946,5.1944,5.2043,5.2099,5.2202,5.224,5.2317,5.2285,5.2321,5.2329,5.2337,5.2343,5.2109,5.2332,5.2331,5.2331,5.233,5.233,0,5.1598,5.1632,5.1709,5.1791,5.1856,5.183,5.1892,5.1948,5.2036,5.2089,5.2158,5.2261,5.2343,5.2379,5.246,5.2514,5.2505,5.2535,5.2529,5.2536,5.2368,5.2338,5.254,5.254,5.254,5.254,5.254,5.254,5.172,5.1838,5.1848,5.1987,5.202,5.2116,5.2153,5.2203,5.2245,5.236,5.2429,5.2451,5.2497,5.258,5.2654,5.2662,5.2692,5.2725,5.2729,5.257,5.2549,5.2528,5.2499,5.2733,5.2733,5.289,5.2891,5.2892]},{"header":{"parameterUnit":"m.s-1","parameterCategory":1,"la1":30.2991,"la2":30.254,"lo1":-89.0895,"lo2":-89.0444,"dy":0.0017,"dx":0.0017,"nx":28,"ny":28,"refTime":"2024-07-03T09:00:00:Z","depth":0,"parameterNumber":3,"parameterNumberName":"V-component_of_WINDS"},"data":[0,0,0,0,0,0,0,0,0,0,0,0,0,0,0,0,0,0,0,0,0,0,0,0,0,0,0,0,0,0,0,0,0,0,0,0,0,0,0,0,0,0,0,0,0,0,0,0,0,0,0,0,0,0,0,0,0,0,2.8629,2.863,0,2.8721,2.8722,2.8723,2.8701,2.87,2.8698,2.8696,2.8788,2.8792,2.8796,0,0,0,0,0,0,0,0,0,0,0,0,0,2.8432,2.8436,2.8629,2.863,2.8631,2.872,2.8722,2.8723,2.8702,2.8699,2.8697,2.8695,2.8787,2.8791,2.8796,0,0,0,0,0,0,0,0,0,0,0,0,0,2.852,2.8437,2.8629,2.8631,2.8633,2.872,2.8722,2.8723,2.8702,2.8699,2.8697,2.8694,2.8785,2.8791,2.8797,2.8887,0,0,2.8816,2.8818,0,0,0,0,0,0,0,0,2.8515,2.8527,2.863,2.8631,2.8633,2.8697,2.8686,2.8778,2.8703,2.8676,2.8696,2.8693,2.876,2.8768,2.879,2.8891,2.8895,2.8816,2.882,2.8822,2.8824,0,0,0,0,0,0,0,2.8509,2.8523,2.8665,2.8631,2.8633,2.8627,2.8637,2.8703,2.8731,2.8678,2.8676,2.8688,2.876,2.8785,2.8792,2.8897,2.8816,2.8821,2.8825,2.8828,2.9074,2.9076,0,0,0,0,0,0,2.8502,2.8518,2.8662,2.8668,2.8566,2.8633,2.8643,2.8679,2.873,2.8736,2.869,2.8686,2.8776,2.8785,2.8796,2.8903,2.8822,2.8828,2.8832,2.9071,2.9074,2.9078,0,0,0,0,0,0,2.8498,2.8515,2.8658,2.8593,2.8611,2.8639,2.8679,2.8682,2.8707,2.8739,2.8744,2.871,2.8774,2.8787,2.8864,2.8906,2.8831,2.8836,2.9068,2.9072,2.9076,2.912,0,0,0,0,0,0,2.8493,2.8514,2.8549,2.8594,2.8614,2.8727,2.8682,2.8686,2.8718,2.8714,2.876,2.8765,2.8773,2.8855,2.887,2.8913,2.8841,2.9064,2.9069,2.9075,2.9115,2.9126,2.9135,0,0,0,0,0,2.8486,2.8558,2.8551,2.8569,2.8659,2.8729,2.8741,2.8749,2.8721,2.8756,2.8777,2.8763,2.8899,2.8863,2.888,2.8926,2.9061,2.9068,2.9074,2.9111,2.9124,2.9134,0,0,0,0,0,0,2.8517,2.8564,2.8557,2.8646,2.8684,2.8725,2.877,2.8762,2.8808,2.8803,2.881,2.8821,2.8899,2.892,2.8879,2.9014,2.8976,2.8986,2.8998,2.9011,2.902,2.9013,2.8846,0,0,0,0,0,2.8535,2.8589,2.8626,2.8701,2.872,2.8742,2.8773,2.8776,2.8815,2.8831,2.8857,2.8895,2.8946,2.8979,2.9028,2.9118,2.9127,2.9157,2.9167,2.9175,2.9183,2.9231,2.9245,2.9099,2.9099,2.9099,0,0,2.8571,2.8603,2.8637,2.8708,2.8738,2.8792,2.8756,2.8815,2.8855,2.8839,2.8914,2.8934,2.8977,2.906,2.9098,2.908,2.9225,2.9183,2.9189,2.9193,2.9239,2.9253,2.9265,2.9103,2.9102,2.9102,0,0,2.8666,2.8696,2.8761,2.8791,2.8837,2.885,2.8866,2.8909,2.8922,2.8997,2.8985,2.9033,2.9121,2.9151,2.9178,2.9282,2.9271,2.9298,2.9348,2.9394,2.9406,2.9416,2.9452,2.9465,2.9306,2.9306,2.9306,0,2.8705,2.8788,2.8795,2.8856,2.8887,2.8875,2.8941,2.8969,2.9028,2.9049,2.9028,2.9137,2.9165,2.9255,2.928,2.9303,2.932,2.9293,2.9404,2.9414,2.9424,2.9458,2.9472,2.9309,2.9309,2.9309,2.9308,0,2.8834,2.8891,2.8938,2.8995,2.9031,2.9094,2.911,2.9146,2.9145,2.916,2.9236,2.9269,2.9323,2.9345,2.9345,2.9434,2.9421,2.9402,2.9363,2.944,2.9473,2.9486,2.9313,2.9312,2.9311,2.9311,0,0,2.8951,2.9011,2.9028,2.9054,2.9102,2.9146,2.9207,2.9261,2.9291,2.9331,2.9382,2.9456,2.9438,2.9469,2.9472,2.9512,2.9591,2.9488,2.9489,2.9505,2.9691,2.9705,2.972,2.9584,2.9587,2.9589,2.9687,0,2.905,2.9159,2.9166,2.9264,2.9316,2.9305,2.9358,2.9393,2.9409,2.9454,2.9471,2.9523,2.9496,2.9514,2.9554,2.9573,2.9629,2.9566,2.963,2.9633,2.962,2.9737,2.9753,2.9844,2.97,2.9702,2.9703,0,2.9179,2.9223,2.9327,2.9366,2.9389,2.9436,2.9486,2.953,2.9568,2.9577,2.961,2.9607,2.9669,2.9628,2.9712,2.9669,2.9695,2.9709,2.9712,2.9718,2.9673,2.9746,2.9873,2.9886,2.9724,2.9722,2.9721,0,2.9254,2.9339,2.9412,2.9434,2.9482,2.9516,2.9537,2.9573,2.9605,2.9647,2.9667,2.9716,2.9743,2.9781,2.979,2.976,2.9874,2.9834,2.9881,2.9881,2.9906,2.9904,3.0039,2.9924,2.9923,2.9923,2.9923,0,2.9362,2.9426,2.9446,2.949,2.956,2.9568,2.9637,2.9656,2.9688,2.9735,2.9728,2.9772,2.9782,2.9828,2.9836,2.9904,2.9916,2.9923,2.9925,2.9924,2.9923,2.9941,2.9935,2.9927,2.9926,2.9925,2.9925,0,2.9458,2.9474,2.9552,2.9591,2.9602,2.9652,2.9685,2.9727,2.9742,2.9801,2.9815,2.9838,2.9891,2.9904,2.9968,2.9973,3.0053,3.0048,3.004,3.004,3.0086,3.0081,3.0237,3.0257,3.0129,3.013,3.0131,0,2.9526,2.9574,2.9618,2.965,2.9673,2.9724,2.9755,2.9764,2.9798,2.9844,2.988,2.9933,2.9976,3.0061,3.0082,3.013,3.0126,3.0178,3.0134,3.0131,3.0126,3.0123,3.0127,3.0186,3.0187,3.0188,3.0189,0,2.9645,2.965,2.9697,2.9746,2.9784,2.9823,2.9861,2.9887,2.99,2.9938,2.9993,3.0026,3.009,3.0142,3.019,3.0211,3.0202,3.0203,3.0216,3.0216,3.0209,3.0212,3.0062,3.0199,3.0198,3.0197,3.0197,3.0197,2.9728,2.977,2.9807,2.9859,2.9888,2.9923,2.9964,2.9984,3.003,3.0083,3.0085,3.0145,3.018,3.0244,3.0268,3.0313,3.0297,3.0317,3.0322,3.0327,3.033,3.0202,3.0322,3.0322,3.0321,3.0321,3.0321,0,2.9846,2.9869,2.9917,2.9969,3.001,2.9998,3.0039,3.0073,3.0125,3.0159,3.0201,3.0263,3.0313,3.0338,3.0387,3.0418,3.0416,3.0431,3.0429,3.0433,3.0342,3.0325,3.0433,3.0432,3.0432,3.0432,3.0432,3.0432,2.9912,2.9982,2.9991,3.0075,3.0098,3.0156,3.018,3.0212,3.0239,3.0309,3.035,3.0366,3.0396,3.0447,3.0492,3.0498,3.0516,3.0533,3.0537,3.0451,3.044,3.0429,3.0413,3.0537,3.0537,3.0624,3.0625,3.0626]}]]